Time,TemperatureF,DewpointF,PressureIn,WindDirection,WindDirectionDegrees,WindSpeedMPH,WindSpeedGustMPH,Humidity,HourlyPrecipIn,Conditions,Clouds,dailyrainin,SoftwareType,DateUTC
2013-01-03 00:03:00,26.2,26.2,27.40,North,0,0.0,0.0,100,0.00,RA,OVC,0.00,WeatherDisplay:10.37,2013-01-03 06:03:00,
2013-01-03 00:08:00,26.2,26.2,27.40,North,0,0.0,0.0,100,0.00,RA,OVC,0.00,WeatherDisplay:10.37,2013-01-03 06:08:00,
2013-01-03 00:13:00,26.2,26.2,27.40,North,0,0.0,0.0,100,0.00,,OVC,0.00,WeatherDisplay:10.37,2013-01-03 06:13:00,
2013-01-03 00:18:00,26.2,26.2,27.40,North,0,0.0,0.0,100,0.00,,OVC,0.00,WeatherDisplay:10.37,2013-01-03 06:18:00,
2013-01-03 00:23:00,26.2,26.2,27.40,North,0,0.0,0.0,100,0.00,,OVC,0.00,WeatherDisplay:10.37,2013-01-03 06:23:00,
2013-01-03 00:28:00,26.2,26.2,27.40,North,0,0.0,0.0,100,0.00,,OVC,0.00,WeatherDisplay:10.37,2013-01-03 06:28:00,
2013-01-03 00:33:00,26.2,26.2,27.40,North,0,0.0,0.0,100,0.00,,OVC,0.00,WeatherDisplay:10.37,2013-01-03 06:33:00,
2013-01-03 00:38:00,26.2,26.2,27.40,North,0,0.0,0.0,100,0.00,,OVC,0.00,WeatherDisplay:10.37,2013-01-03 06:38:00,
2013-01-03 00:43:00,26.2,26.2,27.40,North,0,0.0,0.0,100,0.00,,OVC,0.00,WeatherDisplay:10.37,2013-01-03 06:43:00,
2013-01-03 00:48:00,26.2,26.2,27.40,North,0,0.0,0.0,100,0.00,,OVC,0.00,WeatherDisplay:10.37,2013-01-03 06:48:00,
2013-01-03 00:53:00,26.2,26.2,27.40,North,0,0.0,0.0,100,0.00,,OVC,0.00,WeatherDisplay:10.37,2013-01-03 06:53:00,
2013-01-03 00:58:00,26.2,26.2,27.40,North,0,0.0,0.0,100,0.00,,OVC,0.00,WeatherDisplay:10.37,2013-01-03 06:58:00,
2013-01-03 01:03:00,26.2,26.2,27.40,North,0,0.0,0.0,100,0.00,,OVC,0.00,WeatherDisplay:10.37,2013-01-03 07:03:00,
2013-01-03 01:08:00,26.2,26.2,27.40,North,0,0.0,0.0,100,0.00,,OVC,0.00,WeatherDisplay:10.37,2013-01-03 07:08:00,
2013-01-03 01:13:00,26.2,26.2,27.40,North,0,0.0,0.0,100,0.00,,OVC,0.00,WeatherDisplay:10.37,2013-01-03 07:13:00,
2013-01-03 01:18:00,26.2,26.2,27.40,North,0,0.0,0.0,100,0.00,,OVC,0.00,WeatherDisplay:10.37,2013-01-03 07:18:00,
2013-01-03 01:23:00,26.2,26.2,27.40,North,0,0.0,0.0,100,0.00,,OVC,0.00,WeatherDisplay:10.37,2013-01-03 07:23:00,
2013-01-03 01:28:00,26.2,26.2,27.40,North,0,0.0,0.0,100,0.00,,OVC,0.00,WeatherDisplay:10.37,2013-01-03 07:28:00,
2013-01-03 01:33:00,26.2,26.2,27.40,North,0,0.0,0.0,100,0.00,,OVC,0.00,WeatherDisplay:10.37,2013-01-03 07:33:00,
2013-01-03 01:38:00,26.2,26.2,27.40,North,0,0.0,0.0,100,0.00,,OVC,0.00,WeatherDisplay:10.37,2013-01-03 07:38:00,
2013-01-03 01:43:00,26.2,26.2,27.40,North,0,0.0,0.0,100,0.00,,OVC,0.00,WeatherDisplay:10.37,2013-01-03 07:43:00,
2013-01-03 01:48:00,26.2,26.2,27.40,North,0,0.0,0.0,100,0.00,,OVC,0.00,WeatherDisplay:10.37,2013-01-03 07:48:00,
2013-01-03 01:53:00,26.2,26.2,27.41,North,0,0.0,0.0,100,0.00,,OVC,0.00,WeatherDisplay:10.37,2013-01-03 07:53:00,
2013-01-03 01:58:00,26.2,26.2,27.41,North,0,0.0,0.0,100,0.00,,OVC,0.00,WeatherDisplay:10.37,2013-01-03 07:58:00,
2013-01-03 02:03:00,26.2,26.2,27.40,North,0,0.0,0.0,100,0.00,,OVC,0.00,WeatherDisplay:10.37,2013-01-03 08:03:00,
2013-01-03 02:08:00,26.2,26.2,27.41,North,0,0.0,0.0,100,0.00,,OVC,0.00,WeatherDisplay:10.37,2013-01-03 08:08:00,
2013-01-03 02:13:00,26.2,26.2,27.41,North,0,0.0,0.0,100,0.00,,OVC,0.00,WeatherDisplay:10.37,2013-01-03 08:13:00,
2013-01-03 02:18:00,26.2,26.2,27.41,North,0,0.0,0.0,100,0.00,,OVC,0.00,WeatherDisplay:10.37,2013-01-03 08:18:00,
2013-01-03 02:23:00,26.2,26.2,27.42,North,0,0.0,0.0,100,0.00,,OVC,0.00,WeatherDisplay:10.37,2013-01-03 08:23:00,
2013-01-03 02:28:00,26.2,26.2,27.42,North,0,0.0,0.0,100,0.00,,OVC,0.00,WeatherDisplay:10.37,2013-01-03 08:28:00,
2013-01-03 02:33:00,26.2,26.2,27.42,North,0,0.0,0.0,100,0.00,,OVC,0.00,WeatherDisplay:10.37,2013-01-03 08:33:00,
2013-01-03 02:38:00,23.2,14.2,27.42,NW,315,2.3,2.3,68,0.00,,OVC,0.00,WeatherDisplay:10.37,2013-01-03 08:38:00,
2013-01-03 02:44:00,23.2,14.2,27.42,NW,315,2.3,2.3,68,0.00,CLR,OVC,0.00,WeatherDisplay:10.37,2013-01-03 08:44:00,
2013-01-03 02:48:00,23.2,14.2,27.43,NNE,14,2.3,2.3,68,0.00,CLR,OVC,0.00,WeatherDisplay:10.37,2013-01-03 08:48:00,
2013-01-03 02:54:00,23.0,14.0,27.43,NW,315,1.1,0.0,68,0.00,CLR,OVC,0.00,WeatherDisplay:10.37,2013-01-03 08:54:00,
2013-01-03 02:59:00,23.0,14.0,27.43,NW,315,1.1,0.0,68,0.00,CLR,OVC,0.00,WeatherDisplay:10.37,2013-01-03 08:59:00,
2013-01-03 03:04:00,22.8,14.2,27.44,NW,315,1.1,0.0,69,0.00,CLR,OVC,0.00,WeatherDisplay:10.37,2013-01-03 09:04:00,
2013-01-03 03:09:00,22.8,14.2,27.43,NW,315,1.1,0.0,69,0.00,CLR,OVC,0.00,WeatherDisplay:10.37,2013-01-03 09:09:00,
2013-01-03 03:14:00,22.8,14.2,27.43,North,1,1.1,0.0,69,0.00,CLR,OVC,0.00,WeatherDisplay:10.37,2013-01-03 09:14:00,
2013-01-03 03:19:00,22.8,14.2,27.44,North,0,1.1,0.0,69,0.00,CLR,OVC,0.00,WeatherDisplay:10.37,2013-01-03 09:19:00,
2013-01-03 03:24:00,22.8,14.2,27.44,North,0,1.1,0.0,69,0.00,CLR,OVC,0.00,WeatherDisplay:10.37,2013-01-03 09:24:00,
2013-01-03 03:29:00,22.8,14.2,27.44,North,0,1.1,0.0,69,0.00,CLR,OVC,0.00,WeatherDisplay:10.37,2013-01-03 09:29:00,
2013-01-03 03:34:00,22.8,14.5,27.44,NW,315,0.0,0.0,70,0.00,CLR,OVC,0.00,WeatherDisplay:10.37,2013-01-03 09:34:00,
2013-01-03 03:39:00,22.8,14.5,27.44,NW,315,1.1,0.0,70,0.00,CLR,OVC,0.00,WeatherDisplay:10.37,2013-01-03 09:39:00,
2013-01-03 03:44:00,22.8,14.5,27.44,NW,315,1.1,0.0,70,0.00,CLR,OVC,0.00,WeatherDisplay:10.37,2013-01-03 09:44:00,
2013-01-03 03:49:00,22.8,14.5,27.44,NW,315,1.1,0.0,70,0.00,CLR,OVC,0.00,WeatherDisplay:10.37,2013-01-03 09:49:00,
2013-01-03 03:54:00,22.8,14.5,27.44,NW,315,1.1,0.0,70,0.00,CLR,OVC,0.00,WeatherDisplay:10.37,2013-01-03 09:54:00,
2013-01-03 03:59:00,22.8,14.5,27.44,NW,315,1.1,0.0,70,0.00,CLR,OVC,0.00,WeatherDisplay:10.37,2013-01-03 09:59:00,
2013-01-03 04:04:00,22.8,14.5,27.44,NW,315,1.1,0.0,70,0.00,CLR,OVC,0.00,WeatherDisplay:10.37,2013-01-03 10:04:00,
2013-01-03 04:09:00,22.8,14.5,27.44,NW,315,1.1,0.0,70,0.00,CLR,OVC,0.00,WeatherDisplay:10.37,2013-01-03 10:09:00,
2013-01-03 04:14:00,22.8,14.5,27.43,North,0,1.1,0.0,70,0.00,CLR,OVC,0.00,WeatherDisplay:10.37,2013-01-03 10:14:00,
2013-01-03 04:19:00,22.8,14.5,27.43,North,0,1.1,0.0,70,0.00,CLR,OVC,0.00,WeatherDisplay:10.37,2013-01-03 10:19:00,
2013-01-03 04:24:00,22.8,14.5,27.44,North,0,1.1,0.0,70,0.00,CLR,OVC,0.00,WeatherDisplay:10.37,2013-01-03 10:24:00,
2013-01-03 04:29:00,22.8,14.5,27.43,North,0,1.1,0.0,70,0.00,CLR,OVC,0.00,WeatherDisplay:10.37,2013-01-03 10:29:00,
2013-01-03 04:34:00,22.8,14.5,27.43,North,0,1.1,0.0,70,0.00,CLR,OVC,0.00,WeatherDisplay:10.37,2013-01-03 10:34:00,
2013-01-03 04:39:00,22.8,14.5,27.43,North,0,1.1,0.0,70,0.00,CLR,OVC,0.00,WeatherDisplay:10.37,2013-01-03 10:39:00,
2013-01-03 04:44:00,23.7,15.0,27.43,NW,315,3.5,3.5,69,0.00,CLR,OVC,0.00,WeatherDisplay:10.37,2013-01-03 10:44:00,
2013-01-03 04:49:00,23.7,14.7,27.43,NW,315,4.6,4.6,68,0.00,CLR,OVC,0.00,WeatherDisplay:10.37,2013-01-03 10:49:00,
2013-01-03 04:54:00,23.7,14.7,27.43,NW,315,4.6,4.6,68,0.00,CLR,OVC,0.00,WeatherDisplay:10.37,2013-01-03 10:54:00,
2013-01-03 04:59:00,23.9,14.5,27.43,NW,315,4.6,4.6,67,0.00,CLR,OVC,0.00,WeatherDisplay:10.37,2013-01-03 10:59:00,
2013-01-03 05:04:00,23.9,14.5,27.43,NW,315,3.5,3.5,67,0.00,CLR,OVC,0.00,WeatherDisplay:10.37,2013-01-03 11:04:00,
2013-01-03 05:09:00,23.9,14.5,27.43,NW,315,3.5,3.5,67,0.00,CLR,OVC,0.00,WeatherDisplay:10.37,2013-01-03 11:09:00,
2013-01-03 05:14:00,23.9,14.5,27.43,NW,315,5.8,5.8,67,0.00,CLR,OVC,0.00,WeatherDisplay:10.37,2013-01-03 11:14:00,
2013-01-03 05:19:00,23.9,14.5,27.43,NW,315,5.8,5.8,67,0.00,CLR,OVC,0.00,WeatherDisplay:10.37,2013-01-03 11:19:00,
2013-01-03 05:24:00,23.7,14.4,27.43,NW,315,1.1,1.1,67,0.00,CLR,OVC,0.00,WeatherDisplay:10.37,2013-01-03 11:24:00,
2013-01-03 05:29:00,23.5,14.2,27.43,West,270,1.1,1.1,67,0.00,CLR,OVC,0.00,WeatherDisplay:10.37,2013-01-03 11:29:00,
2013-01-03 05:34:00,23.4,14.0,27.43,NW,315,1.1,0.0,67,0.00,CLR,OVC,0.00,WeatherDisplay:10.37,2013-01-03 11:34:00,
2013-01-03 05:39:00,23.2,13.8,27.43,West,270,3.5,3.5,67,0.00,CLR,OVC,0.00,WeatherDisplay:10.37,2013-01-03 11:39:00,
2013-01-03 05:44:00,23.0,14.0,27.43,West,270,3.5,0.0,68,0.00,CLR,OVC,0.00,WeatherDisplay:10.37,2013-01-03 11:44:00,
2013-01-03 05:49:00,23.0,14.0,27.43,WNW,292,1.1,1.1,68,0.00,CLR,OVC,0.00,WeatherDisplay:10.37,2013-01-03 11:49:00,
2013-01-03 05:54:00,23.0,14.0,27.43,WNW,292,1.1,1.1,68,0.00,CLR,OVC,0.00,WeatherDisplay:10.37,2013-01-03 11:54:00,
2013-01-03 05:59:00,22.8,14.2,27.42,NW,315,1.1,0.0,69,0.00,CLR,OVC,0.00,WeatherDisplay:10.37,2013-01-03 11:59:00,
2013-01-03 06:04:00,22.8,14.2,27.43,NW,315,0.0,0.0,69,0.00,CLR,OVC,0.00,WeatherDisplay:10.37,2013-01-03 12:04:00,
2013-01-03 06:09:00,22.8,14.2,27.42,NW,315,0.0,0.0,69,0.00,CLR,OVC,0.00,WeatherDisplay:10.37,2013-01-03 12:09:00,
2013-01-03 06:14:00,22.6,14.0,27.42,NW,315,1.1,0.0,69,0.00,CLR,OVC,0.00,WeatherDisplay:10.37,2013-01-03 12:14:00,
2013-01-03 06:19:00,22.5,13.8,27.43,NW,315,0.0,0.0,69,0.00,CLR,OVC,0.00,WeatherDisplay:10.37,2013-01-03 12:19:00,
2013-01-03 06:24:00,22.3,13.6,27.42,NW,315,0.0,0.0,69,0.00,CLR,OVC,0.00,WeatherDisplay:10.37,2013-01-03 12:24:00,
2013-01-03 06:29:00,22.3,13.6,27.43,NW,315,0.0,0.0,69,0.00,CLR,OVC,0.00,WeatherDisplay:10.37,2013-01-03 12:29:00,
2013-01-03 06:34:00,22.3,13.6,27.43,NW,315,0.0,0.0,69,0.00,CLR,OVC,0.00,WeatherDisplay:10.37,2013-01-03 12:34:00,
2013-01-03 06:39:00,21.9,13.3,27.43,NW,315,0.0,0.0,69,0.00,CLR,OVC,0.00,WeatherDisplay:10.37,2013-01-03 12:39:00,
2013-01-03 06:44:00,21.9,13.3,27.43,NW,315,0.0,0.0,69,0.00,CLR,OVC,0.00,WeatherDisplay:10.37,2013-01-03 12:44:00,
2013-01-03 06:49:00,21.7,13.5,27.43,NW,315,0.0,0.0,70,0.00,CLR,OVC,0.00,WeatherDisplay:10.37,2013-01-03 12:49:00,
2013-01-03 06:54:00,21.6,13.3,27.43,NW,315,0.0,0.0,70,0.00,CLR,OVC,0.00,WeatherDisplay:10.37,2013-01-03 12:54:00,
2013-01-03 06:59:00,21.6,13.3,27.44,NW,315,0.0,0.0,70,0.00,CLR,OVC,0.00,WeatherDisplay:10.37,2013-01-03 12:59:00,
2013-01-03 07:04:00,21.6,13.3,27.44,NNE,15,0.0,0.0,70,0.00,CLR,OVC,0.00,WeatherDisplay:10.37,2013-01-03 13:04:00,
2013-01-03 07:09:00,21.6,13.3,27.43,North,0,0.0,0.0,70,0.00,CLR,OVC,0.00,WeatherDisplay:10.37,2013-01-03 13:09:00,
2013-01-03 07:14:00,21.6,13.3,27.44,North,0,0.0,0.0,70,0.00,CLR,OVC,0.00,WeatherDisplay:10.37,2013-01-03 13:14:00,
2013-01-03 07:19:00,21.6,13.3,27.44,North,0,0.0,0.0,70,0.00,CLR,OVC,0.00,WeatherDisplay:10.37,2013-01-03 13:19:00,
2013-01-03 07:24:00,21.6,13.3,27.44,North,0,0.0,0.0,70,0.00,CLR,OVC,0.00,WeatherDisplay:10.37,2013-01-03 13:24:00,
2013-01-03 07:29:00,21.6,13.3,27.44,North,0,0.0,0.0,70,0.00,CLR,OVC,0.00,WeatherDisplay:10.37,2013-01-03 13:29:00,
2013-01-03 07:34:00,21.6,13.3,27.44,North,0,0.0,0.0,70,0.00,CLR,OVC,0.00,WeatherDisplay:10.37,2013-01-03 13:34:00,
2013-01-03 07:40:00,21.6,13.3,27.44,North,0,0.0,0.0,70,0.00,CLR,OVC,0.00,WeatherDisplay:10.37,2013-01-03 13:40:00,
2013-01-03 07:45:00,21.6,13.3,27.44,North,0,0.0,0.0,70,0.00,CLR,OVC,0.00,WeatherDisplay:10.37,2013-01-03 13:45:00,
2013-01-03 07:50:00,21.6,13.3,27.44,North,0,0.0,0.0,70,0.00,CLR,OVC,0.00,WeatherDisplay:10.37,2013-01-03 13:50:00,
2013-01-03 07:55:00,21.6,13.3,27.44,North,0,0.0,0.0,70,0.00,CLR,OVC,0.00,WeatherDisplay:10.37,2013-01-03 13:55:00,
2013-01-03 08:00:00,21.6,13.3,27.44,North,0,0.0,0.0,70,0.00,CLR,OVC,0.00,WeatherDisplay:10.37,2013-01-03 14:00:00,
2013-01-03 08:05:00,21.6,13.3,27.44,North,0,0.0,0.0,70,0.00,CLR,OVC,0.00,WeatherDisplay:10.37,2013-01-03 14:05:00,
2013-01-03 08:10:00,16.3,7.3,27.44,NW,315,0.0,0.0,67,0.00,CLR,OVC,0.00,WeatherDisplay:10.37,2013-01-03 14:10:00,
2013-01-03 08:15:00,16.2,7.1,27.44,NW,315,0.0,0.0,67,0.00,CLR,OVC,0.00,WeatherDisplay:10.37,2013-01-03 14:15:00,
2013-01-03 08:20:00,16.2,7.1,27.44,NW,315,0.0,0.0,67,0.00,CLR,OVC,0.00,WeatherDisplay:10.37,2013-01-03 14:20:00,
2013-01-03 08:25:00,16.2,7.1,27.44,North,0,0.0,0.0,67,0.00,CLR,OVC,0.00,WeatherDisplay:10.37,2013-01-03 14:25:00,
2013-01-03 08:30:00,15.3,6.6,27.45,NW,315,1.6,1.6,68,0.00,CLR,OVC,0.00,WeatherDisplay:10.37,2013-01-03 14:30:00,
2013-01-03 08:35:00,15.3,6.6,27.44,NW,315,1.1,1.1,68,0.00,CLR,OVC,0.00,WeatherDisplay:10.37,2013-01-03 14:35:00,
2013-01-03 08:40:00,15.1,6.4,27.45,NW,315,1.1,1.1,68,0.00,CLR,OVC,0.00,WeatherDisplay:10.37,2013-01-03 14:40:00,
2013-01-03 08:45:00,14.9,6.2,27.45,NW,315,1.1,0.0,68,0.00,CLR,OVC,0.00,WeatherDisplay:10.37,2013-01-03 14:45:00,
2013-01-03 08:50:00,14.9,6.2,27.45,NW,315,0.0,0.0,68,0.00,CLR,OVC,0.00,WeatherDisplay:10.37,2013-01-03 14:50:00,
2013-01-03 08:55:00,14.9,6.2,27.46,NNE,14,0.0,0.0,68,0.00,CLR,OVC,0.00,WeatherDisplay:10.37,2013-01-03 14:55:00,
2013-01-03 09:00:00,14.9,6.2,27.45,North,0,0.0,0.0,68,0.00,CLR,OVC,0.00,WeatherDisplay:10.37,2013-01-03 15:00:00,
2013-01-03 09:05:00,14.9,6.2,27.45,North,0,0.0,0.0,68,0.00,CLR,OVC,0.00,WeatherDisplay:10.37,2013-01-03 15:05:00,
2013-01-03 09:10:00,14.9,6.2,27.45,North,0,0.0,0.0,68,0.00,CLR,OVC,0.00,WeatherDisplay:10.37,2013-01-03 15:10:00,
2013-01-03 09:15:00,14.9,6.2,27.46,North,0,0.0,0.0,68,0.00,CLR,OVC,0.00,WeatherDisplay:10.37,2013-01-03 15:15:00,
2013-01-03 09:20:00,17.6,8.5,27.46,North,0,0.0,0.0,67,0.00,CLR,OVC,0.00,WeatherDisplay:10.37,2013-01-03 15:20:00,
2013-01-03 09:25:00,17.6,8.5,27.46,North,0,0.0,0.0,67,0.00,CLR,OVC,0.00,WeatherDisplay:10.37,2013-01-03 15:25:00,
2013-01-03 09:30:00,18.5,9.0,27.46,NW,315,2.3,2.3,66,0.00,CLR,OVC,0.00,WeatherDisplay:10.37,2013-01-03 15:30:00,
2013-01-03 09:35:00,18.5,9.0,27.46,NW,315,2.3,2.3,66,0.00,CLR,OVC,0.00,WeatherDisplay:10.37,2013-01-03 15:35:00,
2013-01-03 09:40:00,18.7,8.9,27.46,NNW,338,3.5,3.5,65,0.00,CLR,OVC,0.00,WeatherDisplay:10.37,2013-01-03 15:40:00,
2013-01-03 09:45:00,18.3,8.5,27.46,North,0,1.1,0.0,65,0.00,CLR,OVC,0.00,WeatherDisplay:10.37,2013-01-03 15:45:00,
2013-01-03 09:50:00,18.5,8.3,27.46,North,0,0.0,0.0,64,0.00,CLR,OVC,0.00,WeatherDisplay:10.37,2013-01-03 15:50:00,
2013-01-03 09:55:00,18.5,8.3,27.46,North,0,0.0,0.0,64,0.00,CLR,OVC,0.00,WeatherDisplay:10.37,2013-01-03 15:55:00,
2013-01-03 10:00:00,19.2,9.0,27.47,North,0,1.1,0.0,64,0.00,CLR,OVC,0.00,WeatherDisplay:10.37,2013-01-03 16:00:00,
2013-01-03 10:05:00,19.2,9.0,27.46,North,0,1.1,0.0,64,0.00,CLR,OVC,0.00,WeatherDisplay:10.37,2013-01-03 16:05:00,
2013-01-03 10:10:00,19.2,9.0,27.46,North,0,1.1,0.0,64,0.00,CLR,OVC,0.00,WeatherDisplay:10.37,2013-01-03 16:10:00,
2013-01-03 10:15:00,19.2,9.0,27.47,North,0,1.1,0.0,64,0.00,CLR,OVC,0.00,WeatherDisplay:10.37,2013-01-03 16:15:00,
2013-01-03 10:20:00,22.3,12.6,27.47,North,0,1.1,0.0,66,0.00,CLR,OVC,0.00,WeatherDisplay:10.37,2013-01-03 16:20:00,
2013-01-03 10:25:00,22.3,12.6,27.47,North,0,1.1,0.0,66,0.00,CLR,OVC,0.00,WeatherDisplay:10.37,2013-01-03 16:25:00,
2013-01-03 10:30:00,22.3,12.6,27.47,North,0,1.1,0.0,66,0.00,CLR,OVC,0.00,WeatherDisplay:10.37,2013-01-03 16:30:00,
2013-01-03 10:35:00,22.3,12.6,27.47,North,0,1.1,0.0,66,0.00,CLR,OVC,0.00,WeatherDisplay:10.37,2013-01-03 16:35:00,
2013-01-03 10:40:00,23.2,12.8,27.47,NW,315,0.0,0.0,64,0.00,CLR,OVC,0.00,WeatherDisplay:10.37,2013-01-03 16:40:00,
2013-01-03 10:45:00,23.9,13.5,27.47,North,0,0.0,0.0,64,0.00,CLR,OVC,0.00,WeatherDisplay:10.37,2013-01-03 16:45:00,
2013-01-03 10:50:00,24.6,14.2,27.47,SW,225,1.1,1.1,64,0.00,CLR,OVC,0.00,WeatherDisplay:10.37,2013-01-03 16:50:00,
2013-01-03 10:55:00,24.6,14.2,27.47,SW,225,1.6,1.6,64,0.00,CLR,OVC,0.00,WeatherDisplay:10.37,2013-01-03 16:55:00,
2013-01-03 11:00:00,24.6,14.2,27.47,North,0,1.1,1.1,64,0.00,CLR,OVC,0.00,WeatherDisplay:10.37,2013-01-03 17:00:00,
2013-01-03 11:05:00,24.6,14.2,27.46,North,0,1.1,1.1,64,0.00,CLR,OVC,0.00,WeatherDisplay:10.37,2013-01-03 17:05:00,
2013-01-03 11:10:00,24.6,14.2,27.46,North,0,1.1,1.1,64,0.00,CLR,OVC,0.00,WeatherDisplay:10.37,2013-01-03 17:10:00,
2013-01-03 11:15:00,24.6,14.2,27.46,North,0,1.1,1.1,64,0.00,CLR,OVC,0.00,WeatherDisplay:10.37,2013-01-03 17:15:00,
2013-01-03 11:20:00,24.6,14.2,27.45,North,0,1.1,1.1,64,0.00,CLR,OVC,0.00,WeatherDisplay:10.37,2013-01-03 17:20:00,
2013-01-03 11:25:00,24.6,14.2,27.45,North,0,1.1,1.1,64,0.00,CLR,OVC,0.00,WeatherDisplay:10.37,2013-01-03 17:25:00,
2013-01-03 11:30:00,31.3,18.6,27.45,SW,225,1.1,1.1,59,0.00,CLR,OVC,0.00,WeatherDisplay:10.37,2013-01-03 17:30:00,
2013-01-03 11:35:00,32.2,18.6,27.44,SE,135,1.1,0.0,57,0.00,CLR,OVC,0.00,WeatherDisplay:10.37,2013-01-03 17:35:00,
2013-01-03 11:40:00,32.2,18.6,27.44,SE,135,1.1,0.0,57,0.00,CLR,OVC,0.00,WeatherDisplay:10.37,2013-01-03 17:40:00,
2013-01-03 11:45:00,32.2,18.6,27.44,North,0,1.1,0.0,57,0.00,CLR,OVC,0.00,WeatherDisplay:10.37,2013-01-03 17:45:00,
2013-01-03 11:50:00,32.2,18.6,27.44,North,0,1.1,0.0,57,0.00,CLR,OVC,0.00,WeatherDisplay:10.37,2013-01-03 17:50:00,
2013-01-03 11:55:00,32.2,18.6,27.43,North,0,1.1,0.0,57,0.00,CLR,OVC,0.00,WeatherDisplay:10.37,2013-01-03 17:55:00,
2013-01-03 12:00:00,32.2,18.6,27.43,North,0,1.1,0.0,57,0.00,CLR,OVC,0.00,WeatherDisplay:10.37,2013-01-03 18:00:00,
2013-01-03 12:05:00,32.2,18.6,27.43,North,0,1.1,0.0,57,0.00,CLR,OVC,0.00,WeatherDisplay:10.37,2013-01-03 18:05:00,
2013-01-03 12:10:00,32.2,18.6,27.43,North,0,1.1,0.0,57,0.00,CLR,OVC,0.00,WeatherDisplay:10.37,2013-01-03 18:10:00,
2013-01-03 12:15:00,33.3,18.8,27.42,SE,135,2.3,2.3,55,0.00,CLR,OVC,0.00,WeatherDisplay:10.37,2013-01-03 18:15:00,
2013-01-03 12:20:00,33.3,18.8,27.42,North,6,2.3,2.3,55,0.00,CLR,OVC,0.00,WeatherDisplay:10.37,2013-01-03 18:20:00,
2013-01-03 12:25:00,33.3,18.8,27.42,North,0,2.3,2.3,55,0.00,CLR,OVC,0.00,WeatherDisplay:10.37,2013-01-03 18:25:00,
2013-01-03 12:31:00,33.3,18.8,27.42,North,0,2.3,2.3,55,0.00,CLR,OVC,0.00,WeatherDisplay:10.37,2013-01-03 18:31:00,
2013-01-03 12:36:00,33.3,18.8,27.41,North,0,2.3,2.3,55,0.00,CLR,OVC,0.00,WeatherDisplay:10.37,2013-01-03 18:36:00,
2013-01-03 12:41:00,33.3,18.8,27.41,North,0,2.3,2.3,55,0.00,CLR,OVC,0.00,WeatherDisplay:10.37,2013-01-03 18:41:00,
2013-01-03 12:46:00,35.4,19.1,27.41,North,0,3.5,3.5,51,0.00,CLR,OVC,0.00,WeatherDisplay:10.37,2013-01-03 18:46:00,
2013-01-03 12:51:00,35.4,19.1,27.40,North,0,3.5,3.5,51,0.00,CLR,OVC,0.00,WeatherDisplay:10.37,2013-01-03 18:51:00,
2013-01-03 12:56:00,35.4,19.1,27.40,North,0,3.5,3.5,51,0.00,CLR,OVC,0.00,WeatherDisplay:10.37,2013-01-03 18:56:00,
2013-01-03 13:01:00,35.4,19.1,27.40,North,0,3.5,3.5,51,0.00,CLR,OVC,0.00,WeatherDisplay:10.37,2013-01-03 19:01:00,
2013-01-03 13:06:00,35.4,19.1,27.40,North,0,3.5,3.5,51,0.00,CLR,OVC,0.00,WeatherDisplay:10.37,2013-01-03 19:06:00,
2013-01-03 13:11:00,35.4,19.1,27.40,North,0,3.5,3.5,51,0.00,CLR,OVC,0.00,WeatherDisplay:10.37,2013-01-03 19:11:00,
2013-01-03 13:16:00,35.4,19.1,27.40,North,0,3.5,3.5,51,0.00,CLR,OVC,0.00,WeatherDisplay:10.37,2013-01-03 19:16:00,
2013-01-03 13:54:00,34.2,17.0,27.38,SW,225,4.6,4.6,49,0.00,CLR,OVC,0.00,WeatherDisplay:10.37,2013-01-03 19:54:00,
2013-01-03 13:59:00,34.2,17.0,27.38,SW,225,4.6,4.6,49,0.00,CLR,OVC,0.00,WeatherDisplay:10.37,2013-01-03 19:59:00,
2013-01-03 14:04:00,34.2,17.0,27.38,North,10,4.6,4.6,49,0.00,CLR,OVC,0.00,WeatherDisplay:10.37,2013-01-03 20:04:00,
2013-01-03 14:09:00,33.8,17.1,27.37,SW,225,2.3,2.3,50,0.00,CLR,OVC,0.00,WeatherDisplay:10.37,2013-01-03 20:09:00,
2013-01-03 14:14:00,33.8,17.1,27.38,SW,225,2.3,2.3,50,0.00,CLR,OVC,0.00,WeatherDisplay:10.37,2013-01-03 20:14:00,
2013-01-03 14:19:00,33.4,17.2,27.37,SW,225,2.3,2.3,51,0.00,CLR,OVC,0.00,WeatherDisplay:10.37,2013-01-03 20:19:00,
2013-01-03 14:24:00,33.4,17.2,27.37,SW,225,2.3,2.3,51,0.00,CLR,OVC,0.00,WeatherDisplay:10.37,2013-01-03 20:24:00,
2013-01-03 14:29:00,33.4,17.2,27.37,North,10,2.3,2.3,51,0.00,CLR,OVC,0.00,WeatherDisplay:10.37,2013-01-03 20:29:00,
2013-01-03 14:34:00,32.9,16.7,27.37,South,180,2.3,2.3,51,0.00,CLR,OVC,0.00,WeatherDisplay:10.37,2013-01-03 20:34:00,
2013-01-03 14:39:00,33.1,17.3,27.37,SW,225,3.5,3.5,52,0.00,CLR,OVC,0.00,WeatherDisplay:10.37,2013-01-03 20:39:00,
2013-01-03 14:44:00,33.1,17.3,27.37,SW,225,3.5,3.5,52,0.00,CLR,OVC,0.00,WeatherDisplay:10.37,2013-01-03 20:44:00,
2013-01-03 14:49:00,33.1,17.3,27.37,North,10,3.5,3.5,52,0.00,CLR,OVC,0.00,WeatherDisplay:10.37,2013-01-03 20:49:00,
2013-01-03 14:54:00,32.9,16.7,27.37,South,180,3.5,3.5,51,0.00,CLR,OVC,0.00,WeatherDisplay:10.37,2013-01-03 20:54:00,
2013-01-03 14:59:00,32.9,16.7,27.37,South,180,3.5,3.5,51,0.00,CLR,OVC,0.00,WeatherDisplay:10.37,2013-01-03 20:59:00,
2013-01-03 15:04:00,32.9,16.7,27.37,North,0,3.5,3.5,51,0.00,CLR,OVC,0.00,WeatherDisplay:10.37,2013-01-03 21:04:00,
2013-01-03 15:09:00,32.9,16.7,27.37,North,0,3.5,3.5,51,0.00,CLR,OVC,0.00,WeatherDisplay:10.37,2013-01-03 21:09:00,
2013-01-03 15:14:00,32.4,16.2,27.37,SW,225,2.3,2.3,51,0.00,CLR,OVC,0.00,WeatherDisplay:10.37,2013-01-03 21:14:00,
2013-01-03 15:19:00,32.4,16.2,27.37,SW,225,2.3,2.3,51,0.00,CLR,OVC,0.00,WeatherDisplay:10.37,2013-01-03 21:19:00,
2013-01-03 15:24:00,32.4,16.2,27.37,North,0,2.3,2.3,51,0.00,CLR,OVC,0.00,WeatherDisplay:10.37,2013-01-03 21:24:00,
2013-01-03 15:29:00,32.4,16.2,27.37,North,0,2.3,2.3,51,0.00,CLR,OVC,0.00,WeatherDisplay:10.37,2013-01-03 21:29:00,
2013-01-03 15:34:00,31.8,15.7,27.37,South,180,2.3,2.3,51,0.00,CLR,OVC,0.00,WeatherDisplay:10.37,2013-01-03 21:34:00,
2013-01-03 15:39:00,31.8,15.7,27.37,South,180,3.5,3.5,51,0.00,CLR,OVC,0.00,WeatherDisplay:10.37,2013-01-03 21:39:00,
2013-01-03 15:44:00,31.6,15.6,27.37,SW,225,1.1,1.1,51,0.00,CLR,OVC,0.00,WeatherDisplay:10.37,2013-01-03 21:44:00,
2013-01-03 15:49:00,31.6,15.6,27.37,SW,225,1.1,1.1,51,0.00,CLR,OVC,0.00,WeatherDisplay:10.37,2013-01-03 21:49:00,
2013-01-03 15:54:00,31.5,15.8,27.37,SW,225,3.5,3.5,52,0.00,CLR,OVC,0.00,WeatherDisplay:10.37,2013-01-03 21:54:00,
2013-01-03 15:59:00,31.5,15.8,27.37,SW,225,2.3,2.3,52,0.00,CLR,OVC,0.00,WeatherDisplay:10.37,2013-01-03 21:59:00,
2013-01-03 16:04:00,31.5,15.8,27.37,SW,225,2.3,2.3,52,0.00,CLR,OVC,0.00,WeatherDisplay:10.37,2013-01-03 22:04:00,
2013-01-03 16:09:00,31.5,15.8,27.36,SW,225,2.3,2.3,52,0.00,CLR,OVC,0.00,WeatherDisplay:10.37,2013-01-03 22:09:00,
2013-01-03 16:14:00,30.4,15.7,27.37,SW,225,1.1,1.1,54,0.00,CLR,OVC,0.00,WeatherDisplay:10.37,2013-01-03 22:14:00,
2013-01-03 16:19:00,30.2,15.5,27.37,South,180,1.1,1.1,54,0.00,CLR,OVC,0.00,WeatherDisplay:10.37,2013-01-03 22:19:00,
2013-01-03 16:24:00,30.2,15.5,27.36,South,180,1.1,1.1,54,0.00,CLR,OVC,0.00,WeatherDisplay:10.37,2013-01-03 22:24:00,
2013-01-03 16:29:00,29.5,15.3,27.36,West,270,1.1,1.1,55,0.00,CLR,OVC,0.00,WeatherDisplay:10.37,2013-01-03 22:29:00,
2013-01-03 16:34:00,28.9,14.8,27.36,SW,225,1.1,1.1,55,0.00,CLR,OVC,0.00,WeatherDisplay:10.37,2013-01-03 22:34:00,
2013-01-03 16:39:00,28.9,14.8,27.36,SW,225,1.1,1.1,55,0.00,CLR,OVC,0.00,WeatherDisplay:10.37,2013-01-03 22:39:00,
2013-01-03 16:44:00,28.0,12.7,27.36,West,270,1.1,0.0,52,0.00,CLR,OVC,0.00,WeatherDisplay:10.37,2013-01-03 22:44:00,
2013-01-03 16:49:00,27.9,12.5,27.36,West,270,0.0,0.0,52,0.00,CLR,OVC,0.00,WeatherDisplay:10.37,2013-01-03 22:49:00,
2013-01-03 16:54:00,27.9,12.5,27.36,West,270,0.0,0.0,52,0.00,CLR,OVC,0.00,WeatherDisplay:10.37,2013-01-03 22:54:00,
2013-01-03 16:59:00,27.9,12.5,27.36,North,1,0.0,0.0,52,0.00,CLR,OVC,0.00,WeatherDisplay:10.37,2013-01-03 22:59:00,
2013-01-03 17:04:00,27.9,12.5,27.36,North,0,0.0,0.0,52,0.00,CLR,OVC,0.00,WeatherDisplay:10.37,2013-01-03 23:04:00,
2013-01-03 17:09:00,27.9,12.5,27.36,North,0,0.0,0.0,52,0.00,CLR,OVC,0.00,WeatherDisplay:10.37,2013-01-03 23:09:00,
2013-01-03 17:14:00,27.9,12.5,27.36,North,0,0.0,0.0,52,0.00,CLR,OVC,0.00,WeatherDisplay:10.37,2013-01-03 23:14:00,
2013-01-03 17:19:00,25.0,10.2,27.36,NW,315,0.0,0.0,53,0.00,CLR,OVC,0.00,WeatherDisplay:10.37,2013-01-03 23:19:00,
2013-01-03 17:24:00,24.4,10.2,27.36,NW,315,0.0,0.0,54,0.00,CLR,OVC,0.00,WeatherDisplay:10.37,2013-01-03 23:24:00,
2013-01-03 17:29:00,23.7,9.9,27.36,NW,315,0.0,0.0,55,0.00,CLR,OVC,0.00,WeatherDisplay:10.37,2013-01-03 23:29:00,
2013-01-03 17:34:00,23.4,9.6,27.36,NW,315,0.0,0.0,55,0.00,CLR,OVC,0.00,WeatherDisplay:10.37,2013-01-03 23:34:00,
2013-01-03 17:40:00,22.6,9.3,27.36,NW,315,1.1,0.0,56,0.00,CLR,OVC,0.00,WeatherDisplay:10.37,2013-01-03 23:40:00,
2013-01-03 17:45:00,22.6,9.3,27.36,NW,315,1.1,0.0,56,0.00,CLR,OVC,0.00,WeatherDisplay:10.37,2013-01-03 23:45:00,
2013-01-03 17:50:00,22.6,9.3,27.36,North,0,1.1,0.0,56,0.00,CLR,OVC,0.00,WeatherDisplay:10.37,2013-01-03 23:50:00,
2013-01-03 17:55:00,21.2,8.3,27.36,NW,315,0.0,0.0,57,0.00,CLR,OVC,0.00,WeatherDisplay:10.37,2013-01-03 23:55:00,
2013-01-03 18:00:00,20.8,8.4,27.35,North,0,1.6,1.6,58,0.00,CLR,OVC,0.00,WeatherDisplay:10.37,2013-01-04 00:00:00,
2013-01-03 18:05:00,20.8,8.4,27.35,North,0,1.1,1.1,58,0.00,CLR,OVC,0.00,WeatherDisplay:10.37,2013-01-04 00:05:00,
2013-01-03 18:10:00,19.8,7.4,27.35,NW,315,1.1,0.0,58,0.00,CLR,OVC,0.00,WeatherDisplay:10.37,2013-01-04 00:10:00,
2013-01-03 18:15:00,19.4,7.4,27.36,NW,315,0.0,0.0,59,0.00,CLR,OVC,0.00,WeatherDisplay:10.37,2013-01-04 00:15:00,
2013-01-03 18:20:00,19.4,7.4,27.36,NW,315,0.0,0.0,59,0.00,CLR,OVC,0.00,WeatherDisplay:10.37,2013-01-04 00:20:00,
2013-01-03 18:25:00,19.2,5.7,27.36,NW,315,0.0,0.0,55,0.00,CLR,OVC,0.00,WeatherDisplay:10.37,2013-01-04 00:25:00,
2013-01-03 18:30:00,19.2,5.7,27.36,NW,315,0.0,0.0,55,0.00,CLR,OVC,0.00,WeatherDisplay:10.37,2013-01-04 00:30:00,
2013-01-03 18:35:00,18.1,4.7,27.36,South,180,0.0,0.0,55,0.00,CLR,OVC,0.00,WeatherDisplay:10.37,2013-01-04 00:35:00,
2013-01-03 18:40:00,18.1,4.7,27.36,South,180,0.0,0.0,55,0.00,CLR,OVC,0.00,WeatherDisplay:10.37,2013-01-04 00:40:00,
2013-01-03 18:45:00,17.4,4.4,27.36,SW,225,0.0,0.0,56,0.00,CLR,OVC,0.00,WeatherDisplay:10.37,2013-01-04 00:45:00,
2013-01-03 18:50:00,17.4,4.4,27.36,SW,225,0.0,0.0,56,0.00,CLR,OVC,0.00,WeatherDisplay:10.37,2013-01-04 00:50:00,
2013-01-03 18:55:00,16.9,3.9,27.36,South,180,1.1,1.1,56,0.00,CLR,OVC,0.00,WeatherDisplay:10.37,2013-01-04 00:55:00,
2013-01-03 19:00:00,16.5,3.5,27.36,South,180,1.1,0.0,56,0.00,CLR,OVC,0.00,WeatherDisplay:10.37,2013-01-04 01:00:00,
2013-01-03 19:05:00,15.8,2.5,27.36,South,180,1.1,1.1,55,0.00,CLR,OVC,0.00,WeatherDisplay:10.37,2013-01-04 01:05:00,
2013-01-03 19:10:00,15.6,3.1,27.36,South,180,1.1,1.1,57,0.00,CLR,OVC,0.00,WeatherDisplay:10.37,2013-01-04 01:10:00,
2013-01-03 19:15:00,15.3,2.7,27.36,South,180,0.0,0.0,57,0.00,CLR,OVC,0.00,WeatherDisplay:10.37,2013-01-04 01:15:00,
2013-01-03 19:20:00,14.7,2.2,27.36,South,180,0.0,0.0,57,0.00,CLR,OVC,0.00,WeatherDisplay:10.37,2013-01-04 01:20:00,
2013-01-03 19:25:00,14.7,2.2,27.36,South,180,0.0,0.0,57,0.00,CLR,OVC,0.00,WeatherDisplay:10.37,2013-01-04 01:25:00,
2013-01-03 19:30:00,14.7,2.2,27.36,South,180,0.0,0.0,57,0.00,CLR,OVC,0.00,WeatherDisplay:10.37,2013-01-04 01:30:00,
2013-01-03 19:35:00,14.0,1.5,27.36,South,180,0.0,0.0,57,0.00,CLR,OVC,0.00,WeatherDisplay:10.37,2013-01-04 01:35:00,
2013-01-03 19:40:00,14.0,1.5,27.36,South,180,0.0,0.0,57,0.00,CLR,OVC,0.00,WeatherDisplay:10.37,2013-01-04 01:40:00,
2013-01-03 19:45:00,14.0,1.5,27.36,North,8,0.0,0.0,57,0.00,CLR,OVC,0.00,WeatherDisplay:10.37,2013-01-04 01:45:00,
2013-01-03 19:50:00,12.9,0.9,27.36,North,0,0.0,0.0,58,0.00,CLR,OVC,0.00,WeatherDisplay:10.37,2013-01-04 01:50:00,
2013-01-03 19:55:00,12.7,0.7,27.36,North,0,0.0,0.0,58,0.00,CLR,OVC,0.00,WeatherDisplay:10.37,2013-01-04 01:55:00,
2013-01-03 20:00:00,12.7,0.7,27.36,North,0,0.0,0.0,58,0.00,CLR,OVC,0.00,WeatherDisplay:10.37,2013-01-04 02:00:00,
2013-01-03 20:05:00,12.7,0.7,27.36,North,0,0.0,0.0,58,0.00,CLR,OVC,0.00,WeatherDisplay:10.37,2013-01-04 02:05:00,
2013-01-03 20:10:00,11.7,0.1,27.36,SW,225,0.0,0.0,59,0.00,CLR,OVC,0.00,WeatherDisplay:10.37,2013-01-04 02:10:00,
2013-01-03 20:16:00,11.7,0.1,27.35,SW,225,0.0,0.0,59,0.00,CLR,OVC,0.00,WeatherDisplay:10.37,2013-01-04 02:16:00,
2013-01-03 20:21:00,11.1,-0.4,27.36,SW,225,0.0,0.0,59,0.00,CLR,OVC,0.00,WeatherDisplay:10.37,2013-01-04 02:21:00,
2013-01-03 20:26:00,11.1,-0.4,27.35,SW,225,0.0,0.0,59,0.00,CLR,OVC,0.00,WeatherDisplay:10.37,2013-01-04 02:26:00,
2013-01-03 20:31:00,11.1,-0.4,27.35,North,0,0.0,0.0,59,0.00,CLR,OVC,0.00,WeatherDisplay:10.37,2013-01-04 02:31:00,
2013-01-03 20:36:00,11.1,-0.4,27.35,North,0,0.0,0.0,59,0.00,CLR,OVC,0.00,WeatherDisplay:10.37,2013-01-04 02:36:00,
2013-01-03 20:41:00,11.1,-0.4,27.35,North,0,0.0,0.0,59,0.00,CLR,OVC,0.00,WeatherDisplay:10.37,2013-01-04 02:41:00,
2013-01-03 20:46:00,11.1,-0.4,27.35,North,0,0.0,0.0,59,0.00,CLR,OVC,0.00,WeatherDisplay:10.37,2013-01-04 02:46:00,
2013-01-03 20:51:00,11.1,-0.4,27.35,North,0,0.0,0.0,59,0.00,CLR,OVC,0.00,WeatherDisplay:10.37,2013-01-04 02:51:00,
2013-01-03 20:56:00,11.1,-0.4,27.35,North,0,0.0,0.0,59,0.00,CLR,OVC,0.00,WeatherDisplay:10.37,2013-01-04 02:56:00,
2013-01-03 21:01:00,9.3,-3.6,27.35,North,0,0.0,0.0,55,0.00,CLR,OVC,0.00,WeatherDisplay:10.37,2013-01-04 03:01:00,
2013-01-03 21:06:00,9.3,-3.6,27.35,North,0,0.0,0.0,55,0.00,CLR,OVC,0.00,WeatherDisplay:10.37,2013-01-04 03:06:00,
2013-01-03 21:11:00,9.3,-3.6,27.35,North,0,0.0,0.0,55,0.00,CLR,OVC,0.00,WeatherDisplay:10.37,2013-01-04 03:11:00,
2013-01-03 21:16:00,9.3,-3.6,27.35,North,0,0.0,0.0,55,0.00,CLR,OVC,0.00,WeatherDisplay:10.37,2013-01-04 03:16:00,
2013-01-03 21:21:00,9.3,-3.6,27.35,North,0,0.0,0.0,55,0.00,CLR,OVC,0.00,WeatherDisplay:10.37,2013-01-04 03:21:00,
2013-01-03 21:26:00,7.5,-4.9,27.34,East,90,0.0,0.0,56,0.00,CLR,OVC,0.00,WeatherDisplay:10.37,2013-01-04 03:26:00,
2013-01-03 21:31:00,7.5,-4.9,27.34,East,90,0.0,0.0,56,0.00,CLR,OVC,0.00,WeatherDisplay:10.37,2013-01-04 03:31:00,
2013-01-03 21:36:00,7.5,-4.9,27.34,North,4,0.0,0.0,56,0.00,CLR,OVC,0.00,WeatherDisplay:10.37,2013-01-04 03:36:00,
2013-01-03 21:41:00,7.5,-4.9,27.34,North,0,0.0,0.0,56,0.00,CLR,OVC,0.00,WeatherDisplay:10.37,2013-01-04 03:41:00,
2013-01-03 21:46:00,7.5,-4.9,27.34,North,0,0.0,0.0,56,0.00,CLR,OVC,0.00,WeatherDisplay:10.37,2013-01-04 03:46:00,
2013-01-03 21:51:00,7.5,-4.9,27.34,North,0,0.0,0.0,56,0.00,CLR,OVC,0.00,WeatherDisplay:10.37,2013-01-04 03:51:00,
2013-01-03 21:56:00,7.5,-4.9,27.34,North,0,0.0,0.0,56,0.00,CLR,OVC,0.00,WeatherDisplay:10.37,2013-01-04 03:56:00,
2013-01-03 22:01:00,7.5,-4.9,27.34,North,0,0.0,0.0,56,0.00,CLR,OVC,0.00,WeatherDisplay:10.37,2013-01-04 04:01:00,
2013-01-03 22:06:00,6.4,-5.6,27.34,NW,315,0.0,0.7,57,0.00,CLR,OVC,0.00,WeatherDisplay:10.37,2013-01-04 04:06:00,
2013-01-03 22:11:00,6.3,-5.7,27.34,NW,315,1.6,1.6,57,0.00,CLR,OVC,0.00,WeatherDisplay:10.37,2013-01-04 04:11:00,
2013-01-03 22:16:00,6.3,-5.7,27.34,NW,315,1.1,1.1,57,0.00,CLR,OVC,0.00,WeatherDisplay:10.37,2013-01-04 04:16:00,
2013-01-03 22:21:00,6.3,-5.7,27.34,North,1,1.1,1.1,57,0.00,CLR,OVC,0.00,WeatherDisplay:10.37,2013-01-04 04:21:00,
2013-01-03 22:26:00,6.3,-5.7,27.35,North,0,1.1,1.1,57,0.00,CLR,OVC,0.00,WeatherDisplay:10.37,2013-01-04 04:26:00,
2013-01-03 22:31:00,6.3,-5.7,27.35,North,0,1.1,1.1,57,0.00,CLR,OVC,0.00,WeatherDisplay:10.37,2013-01-04 04:31:00,
2013-01-03 22:36:00,6.3,-5.7,27.35,North,0,1.1,1.1,57,0.00,CLR,OVC,0.00,WeatherDisplay:10.37,2013-01-04 04:36:00,
2013-01-03 22:41:00,6.3,-5.7,27.35,North,0,1.1,1.1,57,0.00,CLR,OVC,0.00,WeatherDisplay:10.37,2013-01-04 04:41:00,
2013-01-03 22:46:00,5.5,-5.4,27.35,NW,315,0.0,0.0,60,0.00,CLR,OVC,0.00,WeatherDisplay:10.37,2013-01-04 04:46:00,
2013-01-03 22:51:00,5.5,-5.4,27.35,NW,315,0.0,0.0,60,0.00,CLR,OVC,0.00,WeatherDisplay:10.37,2013-01-04 04:51:00,
2013-01-03 22:56:00,5.5,-5.4,27.35,North,1,0.0,0.0,60,0.00,CLR,OVC,0.00,WeatherDisplay:10.37,2013-01-04 04:56:00,
2013-01-03 23:00:00,5.5,-5.4,27.35,North,0,0.0,0.0,60,0.00,CLR,OVC,0.00,WeatherDisplay:10.37,2013-01-04 05:00:00,
2013-01-03 23:02:00,5.5,-5.4,27.35,North,0,0.0,0.0,60,0.00,CLR,OVC,0.00,WeatherDisplay:10.37,2013-01-04 05:02:00,
2013-01-03 23:03:00,5.5,-5.4,27.35,North,0,0.0,0.0,60,0.00,CLR,OVC,0.00,WeatherDisplay:10.37,2013-01-04 05:03:00,
2013-01-03 23:08:00,5.4,-5.2,27.35,North,0,0.0,0.0,61,0.00,CLR,OVC,0.00,WeatherDisplay:10.37,2013-01-04 05:08:00,
2013-01-03 23:13:00,5.2,-5.4,27.35,North,0,0.0,0.0,61,0.00,CLR,OVC,0.00,WeatherDisplay:10.37,2013-01-04 05:13:00,
2013-01-03 23:18:00,5.0,-5.5,27.35,North,0,0.0,0.0,61,0.00,CLR,OVC,0.00,WeatherDisplay:10.37,2013-01-04 05:18:00,
2013-01-03 23:23:00,5.0,-5.5,27.34,North,0,0.0,0.0,61,0.00,CLR,OVC,0.00,WeatherDisplay:10.37,2013-01-04 05:23:00,
2013-01-03 23:28:00,5.0,-5.5,27.35,North,0,0.0,0.0,61,0.00,CLR,OVC,0.00,WeatherDisplay:10.37,2013-01-04 05:28:00,
2013-01-03 23:33:00,5.0,-5.5,27.35,North,0,0.0,0.0,61,0.00,CLR,OVC,0.00,WeatherDisplay:10.37,2013-01-04 05:33:00,
2013-01-03 23:38:00,5.0,-5.5,27.35,North,0,0.0,0.0,61,0.00,CLR,OVC,0.00,WeatherDisplay:10.37,2013-01-04 05:38:00,
2013-01-03 23:43:00,5.0,-5.5,27.35,North,0,0.0,0.0,61,0.00,CLR,OVC,0.00,WeatherDisplay:10.37,2013-01-04 05:43:00,
2013-01-03 23:48:00,5.2,-5.4,27.35,North,0,0.0,0.0,61,0.00,CLR,OVC,0.00,WeatherDisplay:10.37,2013-01-04 05:48:00,
2013-01-03 23:53:00,5.2,-5.4,27.35,North,0,0.0,0.0,61,0.00,CLR,OVC,0.00,WeatherDisplay:10.37,2013-01-04 05:53:00,
2013-01-03 23:58:00,5.5,-4.7,27.35,North,0,0.0,0.0,62,0.00,CLR,OVC,0.00,WeatherDisplay:10.37,2013-01-04 05:58:00,